Location: Unspecified
(0.0000°N, 0.0000°E)
Time: 14:54:58
(UTC+00:00)

N. Korean satellite - Pass Details

Date: 08 April 2021
Orbit: 452 x 499 km, 97.2° (Epoch: 15 April)

Event Time Altitude Azimuth Distance (km) Brightness Sun altitude
Rises 05:01:29 0° 9° (N) 2,537 10.4 -15.0°
Reaches altitude 10° 05:03:33 10° 8° (N) 1,653 9.5 -14.5°
Maximum altitude 05:07:06 81° 281° (W) 486 6.4 -13.6°
Drops below altitude 10° 05:10:37 10° 194° (SSW) 1,634 9.0 -12.7°
Sets 05:12:39 0° 192° (SSW) 2,505 10.0 -12.2°
